Time,TemperatureF,DewpointF,PressureIn,WindDirection,WindDirectionDegrees,WindSpeedMPH,WindSpeedGustMPH,Humidity,HourlyPrecipIn,Conditions,Clouds,dailyrainin,SolarRadiationWatts/m^2,SoftwareType,DateUTC
2013-05-06 00:09:00,62.6,59.0,29.93,West,271,0.0,-999.0,87,-99.99,,,0.00,0,weatherlink.com 1.10,2013-05-06 04:09:00,
2013-05-06 00:24:00,62.0,59.0,29.93,West,271,0.0,-999.0,88,-99.99,,,0.00,0,weatherlink.com 1.10,2013-05-06 04:24:00,
2013-05-06 00:39:00,61.2,58.0,29.93,West,271,0.0,-999.0,90,-99.99,,,0.00,0,weatherlink.com 1.10,2013-05-06 04:39:00,
2013-05-06 00:54:00,60.2,58.0,29.92,West,271,0.0,-999.0,91,-99.99,,,0.00,0,weatherlink.com 1.10,2013-05-06 04:54:00,
2013-05-06 01:09:00,59.8,58.0,29.92,West,271,0.0,-999.0,93,-99.99,,,0.00,0,weatherlink.com 1.10,2013-05-06 05:09:00,
2013-05-06 01:24:00,59.8,58.0,29.92,West,271,0.0,-999.0,93,-99.99,,,0.00,0,weatherlink.com 1.10,2013-05-06 05:24:00,
2013-05-06 01:39:00,59.8,58.0,29.92,West,271,0.0,-999.0,94,-99.99,,,0.00,0,weatherlink.com 1.10,2013-05-06 05:39:00,
2013-05-06 01:54:00,59.5,58.0,29.91,West,271,0.0,-999.0,94,-99.99,,,0.00,0,weatherlink.com 1.10,2013-05-06 05:54:00,
2013-05-06 02:10:00,59.2,58.0,29.91,West,271,0.0,-999.0,95,-99.99,,,0.00,0,weatherlink.com 1.10,2013-05-06 06:10:00,
2013-05-06 02:25:00,59.2,58.0,29.90,West,271,0.0,-999.0,96,-99.99,,,0.00,0,weatherlink.com 1.10,2013-05-06 06:25:00,
2013-05-06 02:40:00,59.2,58.0,29.90,West,271,0.0,-999.0,96,-99.99,,,0.00,0,weatherlink.com 1.10,2013-05-06 06:40:00,
2013-05-06 02:54:00,59.0,58.0,29.89,West,271,0.0,-999.0,96,-99.99,,,0.00,0,weatherlink.com 1.10,2013-05-06 06:54:00,
2013-05-06 03:09:00,59.2,58.0,29.89,West,271,0.0,-999.0,97,-99.99,,,0.00,0,weatherlink.com 1.10,2013-05-06 07:09:00,
2013-05-06 03:24:00,59.5,59.0,29.90,West,271,0.0,-999.0,97,-99.99,,,0.00,0,weatherlink.com 1.10,2013-05-06 07:24:00,
2013-05-06 03:39:00,59.6,59.0,29.89,West,271,0.0,-999.0,97,-99.99,,,0.00,0,weatherlink.com 1.10,2013-05-06 07:39:00,
2013-05-06 03:55:00,59.9,59.0,29.89,West,271,0.0,-999.0,96,-99.99,,,0.00,0,weatherlink.com 1.10,2013-05-06 07:55:00,
2013-05-06 04:09:00,60.5,60.0,29.90,West,271,0.0,-999.0,97,-99.99,,,0.00,0,weatherlink.com 1.10,2013-05-06 08:09:00,
2013-05-06 04:25:00,60.5,60.0,29.90,West,261,0.0,-999.0,99,-99.99,,,0.00,0,weatherlink.com 1.10,2013-05-06 08:25:00,
2013-05-06 04:39:00,61.0,61.0,29.90,West,261,2.0,-999.0,100,-99.99,,,0.00,0,weatherlink.com 1.10,2013-05-06 08:39:00,
2013-05-06 04:55:00,60.9,61.0,29.90,West,261,0.0,-999.0,100,-99.99,,,0.00,0,weatherlink.com 1.10,2013-05-06 08:55:00,
2013-05-06 05:10:00,60.9,61.0,29.90,West,261,0.0,-999.0,100,-99.99,,,0.00,0,weatherlink.com 1.10,2013-05-06 09:10:00,
2013-05-06 05:25:00,61.2,61.0,29.91,SSW,192,1.0,-999.0,100,-99.99,,,0.00,0,weatherlink.com 1.10,2013-05-06 09:25:00,
2013-05-06 05:39:00,61.6,62.0,29.91,SSW,192,0.0,-999.0,100,-99.99,,,0.00,0,weatherlink.com 1.10,2013-05-06 09:39:00,
2013-05-06 05:54:00,62.0,62.0,29.91,SSW,192,0.0,-999.0,100,-99.99,,,0.00,0,weatherlink.com 1.10,2013-05-06 09:54:00,
2013-05-06 06:10:00,61.8,62.0,29.91,SSW,192,0.0,-999.0,100,-99.99,,,0.00,0,weatherlink.com 1.10,2013-05-06 10:10:00,
2013-05-06 06:25:00,62.0,62.0,29.92,SSW,192,0.0,-999.0,100,-99.99,,,0.00,0,weatherlink.com 1.10,2013-05-06 10:25:00,
2013-05-06 06:40:00,62.1,62.0,29.93,SSW,192,0.0,-999.0,100,-99.99,,,0.00,0,weatherlink.com 1.10,2013-05-06 10:40:00,
2013-05-06 06:55:00,61.6,62.0,29.94,SSW,192,0.0,-999.0,100,-99.99,,,0.00,11,weatherlink.com 1.10,2013-05-06 10:55:00,
2013-05-06 07:10:00,61.2,61.0,29.95,SSW,192,0.0,-999.0,100,-99.99,,,0.00,19,weatherlink.com 1.10,2013-05-06 11:10:00,
2013-05-06 07:24:00,61.3,61.0,29.95,SSW,192,0.0,-999.0,100,-99.99,,,0.00,56,weatherlink.com 1.10,2013-05-06 11:24:00,
2013-05-06 07:40:00,62.0,62.0,29.96,SSW,192,0.0,-999.0,100,-99.99,,,0.00,46,weatherlink.com 1.10,2013-05-06 11:40:00,
2013-05-06 07:55:00,62.7,63.0,29.97,SSW,192,0.0,-999.0,100,-99.99,,,0.00,65,weatherlink.com 1.10,2013-05-06 11:55:00,
2013-05-06 08:09:00,63.1,63.0,29.97,SSW,192,0.0,-999.0,100,-99.99,,,0.00,77,weatherlink.com 1.10,2013-05-06 12:09:00,
2013-05-06 08:24:00,63.4,63.0,29.97,NW,311,4.0,-999.0,100,-99.99,,,0.00,216,weatherlink.com 1.10,2013-05-06 12:24:00,
2013-05-06 08:40:00,63.7,63.0,29.97,WSW,258,0.0,-999.0,97,-99.99,,,0.00,297,weatherlink.com 1.10,2013-05-06 12:40:00,
2013-05-06 08:55:00,64.7,62.0,29.97,WNW,293,3.0,-999.0,90,-99.99,,,0.00,353,weatherlink.com 1.10,2013-05-06 12:55:00,
2013-05-06 09:09:00,66.0,60.0,29.97,West,273,0.0,-999.0,82,-99.99,,,0.00,403,weatherlink.com 1.10,2013-05-06 13:09:00,
2013-05-06 09:25:00,67.8,60.0,29.97,West,273,6.0,-999.0,75,-99.99,,,0.00,462,weatherlink.com 1.10,2013-05-06 13:25:00,
2013-05-06 09:40:00,69.3,60.0,29.97,WSW,248,3.0,-999.0,73,-99.99,,,0.00,529,weatherlink.com 1.10,2013-05-06 13:40:00,
2013-05-06 09:55:00,69.9,60.0,29.97,West,262,5.0,-999.0,70,-99.99,,,0.00,599,weatherlink.com 1.10,2013-05-06 13:55:00,
2013-05-06 10:10:00,70.6,60.0,29.97,WNW,293,4.0,-999.0,69,-99.99,,,0.00,608,weatherlink.com 1.10,2013-05-06 14:10:00,
2013-05-06 10:25:00,71.1,60.0,29.98,WNW,303,0.0,-999.0,69,-99.99,,,0.00,705,weatherlink.com 1.10,2013-05-06 14:25:00,
2013-05-06 10:40:00,72.5,60.0,29.98,WSW,245,3.0,-999.0,66,-99.99,,,0.00,877,weatherlink.com 1.10,2013-05-06 14:40:00,
2013-05-06 10:55:00,72.3,59.0,29.98,NW,304,1.0,-999.0,64,-99.99,,,0.00,898,weatherlink.com 1.10,2013-05-06 14:55:00,
2013-05-06 11:10:00,73.0,62.0,29.98,NW,315,6.0,-999.0,68,-99.99,,,0.00,272,weatherlink.com 1.10,2013-05-06 15:10:00,
2013-05-06 11:25:00,73.0,60.0,29.98,NNW,327,4.0,-999.0,64,-99.99,,,0.00,921,weatherlink.com 1.10,2013-05-06 15:25:00,
2013-05-06 11:40:00,73.3,58.0,29.98,WSW,237,5.0,-999.0,59,-99.99,,,0.00,942,weatherlink.com 1.10,2013-05-06 15:40:00,
2013-05-06 11:55:00,73.7,56.0,29.98,SW,226,3.0,-999.0,55,-99.99,,,0.00,258,weatherlink.com 1.10,2013-05-06 15:55:00,
2013-05-06 12:10:00,74.7,57.0,29.98,West,273,4.0,-999.0,55,-99.99,,,0.00,891,weatherlink.com 1.10,2013-05-06 16:10:00,
2013-05-06 12:25:00,74.9,56.0,29.97,NW,306,11.0,-999.0,52,-99.99,,,0.00,935,weatherlink.com 1.10,2013-05-06 16:25:00,
2013-05-06 12:40:00,75.3,58.0,29.97,WNW,299,5.0,-999.0,55,-99.99,,,0.00,951,weatherlink.com 1.10,2013-05-06 16:40:00,
2013-05-06 12:55:00,75.3,56.0,29.96,West,259,7.0,-999.0,52,-99.99,,,0.00,962,weatherlink.com 1.10,2013-05-06 16:55:00,
2013-05-06 13:10:00,76.0,56.0,29.96,West,280,7.0,-999.0,51,-99.99,,,0.00,976,weatherlink.com 1.10,2013-05-06 17:10:00,
2013-05-06 13:25:00,76.3,56.0,29.96,NW,315,3.0,-999.0,49,-99.99,,,0.00,984,weatherlink.com 1.10,2013-05-06 17:25:00,
2013-05-06 13:39:00,76.3,55.0,29.95,West,267,4.0,-999.0,48,-99.99,,,0.00,981,weatherlink.com 1.10,2013-05-06 17:39:00,
2013-05-06 13:56:00,76.7,55.0,29.96,West,262,5.0,-999.0,48,-99.99,,,0.00,990,weatherlink.com 1.10,2013-05-06 17:56:00,
2013-05-06 14:10:00,77.0,55.0,29.95,WNW,284,7.0,-999.0,47,-99.99,,,0.00,1072,weatherlink.com 1.10,2013-05-06 18:10:00,
2013-05-06 14:25:00,77.7,55.0,29.95,WSW,242,7.0,-999.0,46,-99.99,,,0.00,995,weatherlink.com 1.10,2013-05-06 18:25:00,
2013-05-06 14:40:00,77.7,54.0,29.95,WNW,300,6.0,-999.0,44,-99.99,,,0.00,962,weatherlink.com 1.10,2013-05-06 18:40:00,
2013-05-06 14:55:00,77.7,55.0,29.94,NW,314,7.0,-999.0,46,-99.99,,,0.00,930,weatherlink.com 1.10,2013-05-06 18:55:00,
2013-05-06 15:10:00,77.6,56.0,29.93,NW,311,4.0,-999.0,48,-99.99,,,0.00,905,weatherlink.com 1.10,2013-05-06 19:10:00,
2013-05-06 15:25:00,76.8,56.0,29.93,West,271,3.0,-999.0,48,-99.99,,,0.00,856,weatherlink.com 1.10,2013-05-06 19:25:00,
2013-05-06 15:40:00,76.5,56.0,29.92,West,260,7.0,-999.0,50,-99.99,,,0.00,858,weatherlink.com 1.10,2013-05-06 19:40:00,
2013-05-06 15:55:00,77.2,58.0,29.92,West,263,5.0,-999.0,51,-99.99,,,0.00,823,weatherlink.com 1.10,2013-05-06 19:55:00,
2013-05-06 16:10:00,77.0,57.0,29.91,WSW,256,6.0,-999.0,50,-99.99,,,0.00,795,weatherlink.com 1.10,2013-05-06 20:10:00,
2013-05-06 16:25:00,76.8,56.0,29.91,West,271,12.0,-999.0,49,-99.99,,,0.00,744,weatherlink.com 1.10,2013-05-06 20:25:00,
2013-05-06 16:40:00,76.1,55.0,29.91,West,269,4.0,-999.0,49,-99.99,,,0.00,693,weatherlink.com 1.10,2013-05-06 20:40:00,
2013-05-06 16:55:00,75.8,56.0,29.92,WNW,289,9.0,-999.0,51,-99.99,,,0.00,656,weatherlink.com 1.10,2013-05-06 20:55:00,
2013-05-06 17:10:00,75.3,56.0,29.91,West,269,5.0,-999.0,52,-99.99,,,0.00,622,weatherlink.com 1.10,2013-05-06 21:10:00,
2013-05-06 17:25:00,74.9,56.0,29.91,NW,318,8.0,-999.0,52,-99.99,,,0.00,550,weatherlink.com 1.10,2013-05-06 21:25:00,
2013-05-06 17:40:00,74.4,56.0,29.92,West,267,7.0,-999.0,52,-99.99,,,0.00,504,weatherlink.com 1.10,2013-05-06 21:40:00,
2013-05-06 17:55:00,73.9,55.0,29.92,West,262,4.0,-999.0,52,-99.99,,,0.00,450,weatherlink.com 1.10,2013-05-06 21:55:00,
2013-05-06 18:10:00,73.5,56.0,29.91,WNW,291,2.0,-999.0,54,-99.99,,,0.00,399,weatherlink.com 1.10,2013-05-06 22:10:00,
2013-05-06 18:25:00,73.0,56.0,29.91,WNW,294,3.0,-999.0,55,-99.99,,,0.00,341,weatherlink.com 1.10,2013-05-06 22:25:00,
2013-05-06 18:40:00,73.0,55.0,29.92,West,265,2.0,-999.0,54,-99.99,,,0.00,288,weatherlink.com 1.10,2013-05-06 22:40:00,
2013-05-06 18:55:00,70.9,56.0,29.92,West,261,0.0,-999.0,59,-99.99,,,0.00,114,weatherlink.com 1.10,2013-05-06 22:55:00,
2013-05-06 19:10:00,71.6,55.0,29.92,WNW,291,6.0,-999.0,56,-99.99,,,0.00,178,weatherlink.com 1.10,2013-05-06 23:10:00,
2013-05-06 19:25:00,70.8,55.0,29.93,West,266,0.0,-999.0,58,-99.99,,,0.00,97,weatherlink.com 1.10,2013-05-06 23:25:00,
2013-05-06 19:40:00,69.9,54.0,29.94,West,281,2.0,-999.0,58,-99.99,,,0.00,30,weatherlink.com 1.10,2013-05-06 23:40:00,
2013-05-06 19:55:00,68.6,54.0,29.94,West,279,1.0,-999.0,60,-99.99,,,0.00,11,weatherlink.com 1.10,2013-05-06 23:55:00,
2013-05-06 20:10:00,67.4,54.0,29.94,WNW,296,6.0,-999.0,63,-99.99,,,0.00,0,weatherlink.com 1.10,2013-05-07 00:10:00,
2013-05-06 20:25:00,66.3,54.0,29.95,WNW,300,2.0,-999.0,65,-99.99,,,0.00,0,weatherlink.com 1.10,2013-05-07 00:25:00,
2013-05-06 20:40:00,65.5,54.0,29.95,WNW,291,5.0,-999.0,67,-99.99,,,0.00,0,weatherlink.com 1.10,2013-05-07 00:40:00,
2013-05-06 20:55:00,64.8,54.0,29.95,WNW,284,0.0,-999.0,68,-99.99,,,0.00,0,weatherlink.com 1.10,2013-05-07 00:55:00,
2013-05-06 21:10:00,64.5,54.0,29.95,WNW,286,1.0,-999.0,69,-99.99,,,0.00,0,weatherlink.com 1.10,2013-05-07 01:10:00,
2013-05-06 21:25:00,64.2,54.0,29.97,NW,310,0.0,-999.0,70,-99.99,,,0.00,0,weatherlink.com 1.10,2013-05-07 01:25:00,
2013-05-06 21:40:00,63.5,55.0,29.97,NW,310,0.0,-999.0,73,-99.99,,,0.00,0,weatherlink.com 1.10,2013-05-07 01:40:00,
2013-05-06 21:55:00,62.6,55.0,29.98,WNW,302,0.0,-999.0,75,-99.99,,,0.00,0,weatherlink.com 1.10,2013-05-07 01:55:00,
2013-05-06 22:10:00,61.8,55.0,29.98,WNW,302,0.0,-999.0,77,-99.99,,,0.00,0,weatherlink.com 1.10,2013-05-07 02:10:00,
2013-05-06 22:25:00,60.9,54.0,29.99,WNW,302,3.0,-999.0,79,-99.99,,,0.00,0,weatherlink.com 1.10,2013-05-07 02:25:00,
2013-05-06 22:40:00,60.9,55.0,29.99,WNW,302,0.0,-999.0,80,-99.99,,,0.00,0,weatherlink.com 1.10,2013-05-07 02:40:00,
2013-05-06 22:55:00,60.7,55.0,30.00,WNW,302,0.0,-999.0,81,-99.99,,,0.00,0,weatherlink.com 1.10,2013-05-07 02:55:00,
2013-05-06 23:10:00,60.1,55.0,30.00,WNW,303,0.0,-999.0,82,-99.99,,,0.00,0,weatherlink.com 1.10,2013-05-07 03:10:00,
2013-05-06 23:25:00,59.5,55.0,30.00,WNW,303,0.0,-999.0,84,-99.99,,,0.00,0,weatherlink.com 1.10,2013-05-07 03:25:00,
2013-05-06 23:41:00,58.7,55.0,30.00,WNW,303,0.0,-999.0,86,-99.99,,,0.00,0,weatherlink.com 1.10,2013-05-07 03:41:00,
2013-05-06 23:55:00,58.0,54.0,30.00,WNW,303,0.0,-999.0,87,-99.99,,,0.00,0,weatherlink.com 1.10,2013-05-07 03:55:00,